St. Thomas, VI

1:30 AM AST on July 24, 2017 (GMT -0400)
King

Weather History for TIST - October, 2012

Change the Weather History Date:

Monday, October 8, 2012

  Actual Average Record
Temperature  
Mean Temperature 83 °F 83 °F  
Max Temperature 89 °F 89 °F 96 °F (1987)
Min Temperature 77 °F 77 °F 70 °F (2002)
Degree Days  
Heating Degree Days 0 0  
Month to date heating degree days 0 0  
Since 1 July heating degree days 0 0  
Cooling Degree Days 18 18  
Month to date cooling degree days 155 144  
Year to date cooling degree days 4484 4703  
Growing Degree Days 33 (Base 50)    
Moisture  
Dew Point 76 °F    
Average Humidity 80    
Maximum Humidity 91    
Minimum Humidity 68    
Precipitation  
Precipitation 0.26 in 0.17 in 5.40 in (1977)
Month to date precipitation 0.69 1.32  
Year to date precipitation 23.84 27.05  
Sea Level Pressure  
Sea Level Pressure 29.98 in    
Wind  
Wind Speed 8 mph (ESE)    
Max Wind Speed 28 mph    
Max Gust Speed 31 mph    
Visibility 9 miles    
Events Rain    
T = Trace of Precipitation, MM = Missing Value Source: NWS Daily Summary

Daily Weather History Graph

Daily Weather History Graph

Search for Another Location

Airport or City:

Trip Planner

Search our weather history database for the weather conditions in past years. The results will help you decide how hot, cold, wet, or windy it might be!

Date:

Astronomy

Oct. 08, 2012 Rise Set
Actual Time 6:11 AM AST 6:02 PM AST
Civil Twilight 5:50 AM AST 6:24 PM AST
Nautical Twilight 5:24 AM AST 6:49 PM AST
Astronomical Twilight 4:59 AM AST 7:14 PM AST
Moon No Moon Rise 12:57 PM AST (10/8)
Length of Visible Light 12h 34m
Length of Day
11h 50m
Waning Gibbous, 46% of the Moon is Illuminated
Oct 8
Waning Gibbous
Oct 15
New
Oct 21
First Quarter
Oct 29
Full
Nov 6
Last Quarter

Hourly Weather History & Observations

Time (AST) Temp. Heat Index Dew Point Humidity Pressure Visibility Wind Dir Wind Speed Gust Speed Precip Events Conditions
12:53 AM 82.0 °F 88.6 °F 75.0 °F 79% 29.96 in 10.0 mi East 6.9 mph - N/A   Clear
1:53 AM 82.0 °F 88.6 °F 75.0 °F 79% 29.95 in 10.0 mi East 5.8 mph - N/A   Clear
2:50 AM 77.0 °F - 75.2 °F 94% 29.94 in 4.0 mi East 11.5 mph - 0.04 in Rain Heavy Rain
2:53 AM 77.0 °F - 75.9 °F 96% 29.94 in 4.0 mi East 10.4 mph - 0.04 in Rain Rain
3:53 AM 79.0 °F - 77.0 °F 94% 29.94 in 10.0 mi East 5.8 mph - 0.01 in   Partly Cloudy
4:53 AM 80.1 °F 85.8 °F 77.0 °F 90% 29.94 in 10.0 mi East 5.8 mph - N/A   Partly Cloudy
5:53 AM 80.1 °F 85.8 °F 77.0 °F 90% 29.96 in 10.0 mi East 6.9 mph - N/A   Clear
6:53 AM 80.1 °F 85.8 °F 77.0 °F 90% 29.97 in 10.0 mi ESE 8.1 mph - N/A   Clear
7:37 AM 80.6 °F 88.1 °F 78.8 °F 94% 29.99 in 2.0 mi East 12.7 mph 19.6 mph 0.09 in Rain Light Rain
7:44 AM 80.6 °F 87.1 °F 77.0 °F 89% 30.00 in 1.2 mi ESE 10.4 mph - 0.14 in Rain Heavy Rain
7:47 AM 80.6 °F 86.2 °F 75.2 °F 84% 30.00 in 2.0 mi ESE 10.4 mph - 0.14 in Rain Rain
7:53 AM 80.1 °F 85.8 °F 77.0 °F 90% 30.00 in 6.0 mi East 10.4 mph - 0.14 in Rain Light Rain
8:53 AM 84.0 °F 93.7 °F 77.0 °F 79% 30.01 in 10.0 mi SE 6.9 mph - 0.03 in   Scattered Clouds
9:53 AM 84.9 °F 95.3 °F 77.0 °F 77% 30.02 in 10.0 mi SE 10.4 mph - N/A   Clear
10:53 AM 87.1 °F 98.8 °F 77.0 °F 72% 30.01 in 10.0 mi SSE 11.5 mph - N/A   Clear
11:53 AM 87.1 °F 98.8 °F 77.0 °F 72% 29.99 in 10.0 mi SSE 10.4 mph - N/A   Clear
12:53 PM 88.0 °F 97.5 °F 75.0 °F 65% 29.98 in 10.0 mi SSE 10.4 mph - N/A   Clear
1:53 PM 88.0 °F 98.5 °F 75.9 °F 67% 29.96 in 10.0 mi SSE 11.5 mph - N/A   Clear
2:53 PM 87.1 °F 98.8 °F 77.0 °F 72% 29.96 in 10.0 mi SSE 12.7 mph - N/A   Scattered Clouds
3:53 PM 82.0 °F 90.2 °F 77.0 °F 85% 29.96 in 10.0 mi Calm Calm - 0.04 in Rain Light Rain
4:53 PM 82.0 °F 89.4 °F 75.9 °F 82% 29.96 in 10.0 mi ENE 5.8 mph - 0.00 in   Scattered Clouds
5:53 PM 82.0 °F 89.4 °F 75.9 °F 82% 29.98 in 10.0 mi East 6.9 mph - N/A   Clear
6:53 PM 81.0 °F 87.3 °F 75.9 °F 85% 29.98 in 10.0 mi East 5.8 mph - 0.00 in   Clear
7:53 PM 81.0 °F 87.9 °F 77.0 °F 88% 30.00 in 10.0 mi East 4.6 mph - N/A   Clear
8:53 PM 81.0 °F 87.9 °F 77.0 °F 88% 30.01 in 10.0 mi East 4.6 mph - N/A   Clear
9:53 PM 81.0 °F 87.9 °F 77.0 °F 88% 30.02 in 10.0 mi East 8.1 mph - 0.00 in   Partly Cloudy
10:53 PM 81.0 °F 87.3 °F 75.9 °F 85% 30.02 in 10.0 mi East 5.8 mph - N/A   Clear
11:53 PM 80.1 °F 85.1 °F 75.0 °F 85% 30.02 in 10.0 mi East 5.8 mph - N/A   Clear